RH
73 71 71 73 70 74 84 97 97 89 91 99 98 95 84 74 68 65 68 64 64 68 64 68 80 74 68 69 64 86 77 92 99 97 83 72 75 87 68 92 93 88 89 64
71 69 73 74 70 70 94 98 96 94 93 98 91 79 76 73 71 67 62 63 59 60 61 72 73 70 59 63 60 69 63 90 98 98 90 84 96 88 76 71 81 87 83 55
72 73 75 76 71 68 94 96 93 90 96 92 88 84 74 81 72 68 59 60 55 59 57 60 74 75 64 58 55 62 59 80 82 83 77 86 98 89 83 84 94 76 84 59
72 74 76 76 71 66 88 96 92 84 95 78 77 77 76 71 70 70 62 65 61 63 67 67 78 76 71 61 64 64 62 85 83 73 76 80 79 78 81 95 71 86 58 61
73 74 76 74 75 64 82 97 92 94 92 82 81 81 81 76 76 75 76 70 71 68 78 74 72 68 76 71 76 76 76 95 84 82 71 80 81 74 77 79 79 79 67 69
74 75 76 76 75 73 91 96 90 98 76 63 78 78 75 76 81 73 73 74 75 74 73 72 75 60 56 59 67 75 81 91 91 88 79 76 80 72 72 73 66 68 74 49
75 75 75 75 75 78 87 95 96 91 79 57 58 49 53 57 75 80 75 81 71 75 76 72 71 62 62 62 75 68 86 85 92 96 85 91 58 62 54 60 63 57 58 51
74 74 74 75 75 78 91 96 95 95 78 63 44 51 54 72 78 83 84 84 84 86 80 76 78 82 73 68 65 73 72 87 95 96 97 71 64 67 67 70 63 54 58 54
75 77 76 74 75 76 94 96 95 96 85 77 63 61 78 89 93 83 84 78 73 82 93 88 88 94 73 80 67 66 62 62 83 94 96 90 63 63 54 58 77 61 54 56
74 75 75 75 76 78 95 95 90 92 95 83 73 76 74 68 66 75 73 64 82 83 94 93 91 87 68 86 87 86 79 79 89 91 85 76 54 56 58 78 67 68 57 53
73 75 75 75 74 76 90 94 88 86 97 92 74 65 72 75 75 83 72 85 84 89 91 92 89 87 75 78 73 80 77 87 93 87 96 90 62 68 75 65 75 73 68 62
74 73 73 75 76 77 83 96 90 76 95 89 85 77 72 69 69 78 80 75 88 93 96 95 97 94 73 80 86 79 79 70 80 79 76 52 59 61 61 63 65 72 78 75
76 72 73 75 75 73 83 97 92 95 96 90 80 74 59 60 63 62 78 81 79 80 86 96 93 96 93 93 86 80 74 67 69 68 60 59 53 61 66 68 67 71 71 70
76 71 73 77 78 71 83 86 98 95 96 94 82 63 72 59 57 63 68 72 69 78 89 88 92 93 94 96 88 87 71 73 71 73 64 65 59 60 64 70 74 73 74 74
76 76 79 78 73 76 89 97 97 95 90 93 89 76 65 54 62 66 70 74 74 84 91 97 88 90 96 91 95 80 70 72 78 76 60 58 55 54 68 74 74 74 76 78
79 80 80 74 71 83 95 94 95 94 95 99 92 78 69 60 60 65 69 75 77 84 89 92 89 81 95 95 88 70 44 45 80 89 78 71 66 76 76 75 79 77 76 77
78 77 72 74 78 94 90 87 88 85 94 96 96 97 75 60 68 84 83 75 85 86 90 94 89 82 90 92 99 52 46 42 43 56 79 79 78 78 78 75 74 71 76 77
75 68 71 76 77 81 91 97 85 90 96 95 97 93 87 84 95 95 83 89 90 91 92 92 95 85 85 93 73 62 58 56 50 71 87 84 76 77 78 79 77 82 83 84
69 72 77 88 92 94 94 78 86 96 95 99 97 99 98 91 94 94 96 88 97 87 97 92 82 81 94 71 65 64 59 83 89 90 91 89 80 82 86 86 87 88 89 89
71 80 84 95 93 74 81 93 92 95 93 98 96 98 98 95 96 96 99 97 95 99 88 86 87 87 67 71 95 87 72 88 89 97 98 99 98 93 91 93 93 92 91 87
91 92 95 92 81 91 94 88 94 92 93 92 85 98 92 88 97 96 94 99 98 99 96 88 97 96 98 88 98 97 91 84 91 89 92 94 88 89 94 96 94 92 92 84
86 90 88 91 89 95 92 100 92 94 95 93 90 96 96 95 94 99 98 98 99 97 98 97 96 99 97 96 98 99 98 98 87 85 89 85 93 95 94 90 89 88 88 89
91 89 87 87 92 68 66 73 81 87 95 98 98 97 96 93 93 98 98 99 96 99 99 98 99 93 96 98 78 92 100 99 99 98 98 95 92 88 91 89 83 85 86 87
92 82 62 84 88 88 94 90 90 92 98 98 98 92 99 95 99 94 100 84 99 98 97 97 89 89 97 97 89 75 78 93 100 100 99 99 99 82 79 80 80 82 92 96
98 84 75 86 88 97 100 98 97 95 99 99 97 87 94 97 98 96 98 98 98 97 94 94 89 97 98 97 97 79 63 69 77 91 98 95 97 94 79 85 84 82 84 86
95 95 86 93 92 93 99 100 99 98 97 98 92 92 93 93 99 96 95 94 96 93 97 94 96 96 94 98 98 98 65 60 69 71 82 85 77 71 65 67 68 88 87 86
94 96 95 99 98 97 98 96 92 93 94 96 98 100 93 93 93 98 97 98 94 96 96 97 94 94 95 98 97 96 90 62 91 85 86 94 91 93 55 52 63 80 88 91
Wind_Speed
17 20 22 23 25 22 7 2 3 2 2 2 1 2 2 2 0 1 2 2 2 1 2 4 3 6 4 8 7 6 2 5 4 2 3 4 2 6 6 4 4 4 3 8
18 20 21 23 25 19 1 1 2 1 2 2 3 1 1 1 2 2 3 2 3 2 2 4 3 3 3 8 6 7 6 1 4 2 1 2 6 5 3 4 3 6 6 7
18 20 21 24 26 19 4 2 2 3 1 2 3 1 1 1 1 1 2 2 3 4 4 5 3 2 3 3 3 3 4 4 6 6 4 6 7 11 8 6 5 4 7 5
16 20 21 24 26 17 4 4 2 2 3 3 3 3 1 2 1 3 1 2 0 1 1 2 3 2 2 3 2 3 4 4 3 1 2 3 3 11 16 14 15 9 10 11
16 18 20 23 26 12 6 4 3 4 4 4 4 5 6 4 3 4 2 2 5 4 4 2 3 4 3 4 1 2 2 1 3 4 2 1 3 6 14 18 13 12 4 8
14 16 19 21 23 11 4 2 3 1 6 5 2 4 4 5 5 2 4 3 2 5 2 2 3 3 4 5 7 3 3 5 4 4 1 2 7 16 14 10 10 16 14 16
11 13 16 18 20 10 3 1 2 2 2 3 4 7 6 7 5 3 4 5 3 2 6 3 1 4 6 6 3 4 5 4 3 3 3 2 8 2 9 17 8 16 8 7
9 10 13 15 15 13 4 0 3 2 1 3 4 11 5 6 6 2 2 5 2 4 4 3 3 4 1 3 5 4 4 4 2 4 3 8 5 3 6 8 10 17 19 10
9 9 10 13 13 11 4 2 2 3 3 2 3 4 4 3 5 5 3 4 5 4 3 2 3 4 4 2 3 5 4 3 4 2 2 5 2 0 3 4 7 3 14 12
7 8 10 12 11 12 4 1 3 4 2 2 4 3 3 3 3 3 3 7 8 4 3 1 2 3 5 4 6 5 3 1 5 4 3 7 6 3 3 2 5 5 7 11
4 6 8 10 9 8 3 0 3 4 1 4 3 4 3 4 3 2 6 2 2 3 1 1 2 1 3 1 4 6 7 6 4 4 3 8 3 2 4 4 3 3 1 6
2 6 7 9 11 10 4 2 3 1 4 4 2 4 3 4 4 2 3 2 3 3 3 3 2 3 1 1 3 1 3 7 6 8 7 5 5 5 5 3 2 2 2 3
5 4 5 7 10 12 5 1 2 2 2 3 4 3 5 2 3 3 2 1 3 3 2 1 2 4 3 2 5 3 3 4 4 2 5 7 6 5 5 4 4 1 2 4
4 3 5 7 8 10 5 2 3 2 3 3 4 2 3 6 2 2 2 2 2 2 2 1 2 3 2 3 3 2 5 1 4 5 5 6 7 7 6 3 3 3 3 2
4 3 7 8 8 8 5 3 2 0 4 3 2 4 2 2 2 1 1 2 2 1 2 1 3 3 3 3 2 9 5 6 5 6 6 5 8 6 5 7 7 6 6 4
4 6 6 7 7 5 3 1 2 4 1 3 2 1 3 1 1 2 2 2 2 1 1 3 3 3 1 2 4 7 6 9 4 4 9 8 9 3 5 7 6 5 5 3
4 5 6 7 8 4 3 1 3 5 1 2 2 3 2 1 1 0 1 1 1 2 2 3 2 2 2 3 4 6 11 16 14 8 13 7 5 6 6 8 7 6 4 2
3 5 10 11 12 9 4 3 5 3 2 2 3 4 3 2 1 1 1 2 1 1 2 2 2 2 1 5 10 11 9 11 14 5 11 15 5 6 5 5 4 4 2 1
6 9 10 5 4 3 2 4 2 2 3 3 3 1 4 3 2 1 2 1 2 1 2 3 2 2 5 8 10 11 9 10 3 7 10 13 5 6 4 5 5 4 1 2
9 4 3 3 2 3 3 1 2 1 2 3 2 1 4 2 1 3 1 2 2 2 4 2 2 5 8 8 10 11 12 6 3 4 8 6 9 2 1 3 3 3 1 2
3 2 2 3 5 1 2 3 3 3 4 0 1 2 4 3 2 3 1 1 2 2 2 3 3 3 5 7 8 8 8 7 3 3 2 5 7 4 2 3 3 3 2 1
5 5 3 1 3 3 6 2 4 3 3 4 3 3 2 4 2 3 2 3 2 5 4 2 2 4 10 10 9 7 10 9 8 6 3 3 2 3 3 3 3 2 2 3
3 5 5 4 4 8 6 2 6 4 3 3 3 4 3 3 2 3 3 4 3 4 3 2 3 10 10 9 9 6 5 7 5 4 2 4 3 4 4 3 3 3 3 4
5 4 4 4 4 2 5 4 5 5 1 2 2 3 1 2 2 2 4 3 3 2 6 4 5 11 11 8 9 7 6 5 5 5 4 4 3 3 3 3 3 3 4 5
4 4 1 1 3 1 2 2 2 3 2 2 3 3 1 3 3 2 4 4 2 5 1 4 5 9 8 7 5 7 6 5 4 3 4 4 4 3 3 4 4 4 4 5
5 5 3 2 3 4 2 0 3 2 1 1 1 2 3 3 3 3 5 4 3 3 3 4 5 7 7 5 4 4 6 4 4 3 3 2 3 3 3 2 4 4 4 4
3 0 0 2 2 4 3 3 3 2 3 1 3 3 6 3 3 4 3 4 4 3 4 3 4 6 7 6 5 4 4 4 4 4 3 3 4 5 4 2 3 3 2 2
Wind_Direction
354 350 346 348 351 350 32 63 75 238 70 248 189 109 209 288 12 201 324 324 16 13 6 64 106 151 205 175 154 138 133 112 135 176 211 229 170 203 177 161 227 224 153 276
358 351 348 351 355 354 62 67 212 154 121 45 335 286 346 335 27 28 25 5 14 354 47 87 78 90 96 187 171 164 178 137 111 105 11 274 217 200 170 112 62 209 164 257
360 355 353 356 357 357 100 54 82 331 168 214 271 31 199 189 324 307 12 319 16 25 27 39 127 93 38 88 123 151 115 145 170 187 205 135 192 192 188 167 182 196 219 268
358 1 2 0 360 2 84 25 35 26 322 353 337 300 314 181 66 352 359 2 58 290 154 81 91 81 48 14 63 104 118 169 133 278 136 135 218 192 194 204 213 205 234 245
5 10 14 12 4 19 76 77 9 346 306 288 317 355 355 46 26 351 10 52 357 74 91 48 178 128 170 202 56 98 23 150 88 325 275 168 271 234 209 213 224 246 243 260
15 18 23 20 16 32 77 354 334 357 328 336 41 12 339 34 4 33 63 345 106 66 54 281 266 244 190 170 152 143 100 121 79 266 358 357 298 228 209 219 216 209 210 223
23 22 21 22 24 54 106 128 104 48 338 20 31 359 326 358 337 306 325 11 44 352 306 245 166 57 88 132 133 134 126 100 93 208 35 281 241 236 215 215 225 218 240 190
22 16 21 22 26 39 85 88 93 89 76 311 345 356 349 340 333 6 349 2 306 308 3 60 50 353 49 208 166 155 129 120 117 140 199 282 274 195 170 171 254 219 219 208
22 7 13 19 23 26 84 52 114 85 93 1 301 327 3 359 335 343 30 354 319 47 66 76 169 200 200 200 191 135 152 92 126 174 205 250 274 325 202 149 282 267 208 194
30 25 13 13 29 32 90 37 83 89 66 297 360 29 324 344 1 300 320 344 348 11 46 85 203 257 183 178 175 189 150 157 214 246 275 286 257 222 142 138 255 313 205 193
28 24 12 16 27 36 76 265 61 102 104 296 358 36 360 335 32 20 329 325 32 349 64 113 285 220 251 163 199 176 169 166 195 174 229 274 196 90 193 235 294 303 3 162
52 25 12 22 38 39 71 52 337 86 111 233 315 273 254 197 189 85 330 320 356 21 300 24 309 307 300 164 264 55 214 187 183 183 213 245 228 228 247 204 244 333 91 117
109 51 17 19 29 19 81 159 288 51 50 347 35 358 333 77 183 195 172 341 340 27 7 346 294 282 1 257 246 257 282 167 222 123 259 238 251 264 267 212 218 166 116 133
121 45 23 17 31 24 82 53 321 65 109 85 286 351 324 295 250 192 172 136 11 54 27 1 276 253 69 257 283 232 216 127 225 257 300 305 280 230 217 217 162 118 113 113
118 50 35 38 18 75 82 82 348 317 120 158 289 303 273 313 143 130 149 170 142 77 342 19 249 289 342 306 291 244 211 221 190 232 256 237 247 232 177 173 180 171 143 129
109 54 53 17 18 108 78 61 336 346 57 99 92 256 259 243 208 238 233 173 129 139 188 245 269 257 228 302 262 277 271 261 75 304 313 279 289 303 169 167 165 155 147 130
87 61 54 54 81 67 83 163 258 341 18 91 18 325 247 238 213 11 109 89 145 163 242 240 245 282 182 243 255 285 314 307 302 328 356 277 220 248 149 127 122 110 92 82
95 100 113 103 108 106 35 331 359 19 58 41 80 298 0 8 298 204 158 128 111 230 251 291 241 289 235 257 247 275 288 299 293 345 350 303 271 124 96 97 114 103 107 20
125 124 112 52 22 61 241 289 46 52 102 104 74 50 289 353 280 286 131 170 213 181 229 238 147 258 235 245 293 301 300 296 325 22 346 319 292 107 113 110 86 106 69 343
125 67 63 16 281 266 6 32 350 20 16 41 103 288 293 34 331 291 204 156 222 231 229 134 210 259 274 302 307 298 272 231 188 244 267 333 276 90 124 91 108 112 39 328
64 86 117 244 305 52 28 28 26 349 11 12 319 209 311 327 296 301 271 247 179 257 170 155 241 250 305 334 315 319 327 328 271 242 145 271 277 211 146 92 67 52 26 351
160 134 109 7 41 39 75 346 332 54 271 315 309 273 226 292 277 269 256 263 210 246 133 205 262 334 329 325 324 324 326 337 344 347 11 313 31 62 88 95 86 40 357 1
59 60 56 59 308 44 91 340 318 359 316 315 349 328 322 323 277 266 275 265 243 128 210 184 49 320 334 329 319 324 328 329 325 328 12 355 1 38 21 41 22 360 29 13
76 95 32 98 325 234 177 182 193 233 214 321 327 309 239 281 315 273 273 285 281 276 24 10 307 329 327 329 329 337 344 348 343 348 5 16 7 25 25 27 8 17 26 2
90 77 95 239 240 245 208 253 300 263 187 76 358 304 185 294 292 249 294 270 351 46 229 252 301 312 317 315 334 333 338 339 345 351 4 19 20 356 349 359 357 16 21 22
84 74 89 251 57 310 345 249 266 242 124 55 45 334 314 285 319 295 246 291 192 229 221 254 297 297 304 299 307 319 312 324 334 357 351 336 354 335 317 321 12 3 15 5
90 308 19 110 140 207 238 190 236 186 77 149 95 70 217 329 270 262 227 219 215 233 267 266 273 282 290 282 271 261 291 323 0 326 332 313 335 346 298 331 345 335 358 351